COSMOS 2278

Last updated on Thu Nov 21 2024 00:02:12 GMT+0000 (Coordinated Universal Time)

1 23087U 94023A 24325.01638595 .00000345 00000+0 20552-3 0 9999 2 23087 71.0539 88.0868 0008062 19.0741 341.0682 14.14208872577698
UTC large
Height (km)
Speed (km/s)
/
Latitude / Longitude
Inclination (degrees)
Orbital Period (minutes)
Azimuth
Elevation
Range (km)
Doppler Factor

Next 0 passes for location: London (51.5072 / 0.1276)

Sorry there are no passes over London.